Regional Weather Roundup
Issued by NWS

Home | Current Version | Previous Version | Graphics & Text | Print | Product List | Glossary On
Versions: 1 2 3 4 5 6 7 8 9 10 11 12 13 14 15 16 17 18 19 20 21 22 23 24 25 26 27 28 29 30 31 32 33 34 35 36 37 38 39 40 41 42 43 44 45 46 47 48 49 50
430
ASUS43 KMPX 061001
RWRMN
WEATHER ROUNDUP FOR MINNESOTA
NATIONAL WEATHER SERVICE TWIN CITIES/CHANHASSEN MN
400 AM CST TUE DEC 06 2016


NOTE: "FAIR" INDICATES FEW OR NO CLOUDS BELOW 12,000 FEET WITH NO
SIGNIFICANT WEATHER AND/OR OBSTRUCTIONS TO VISIBILITY. N/A MEANS
CURRENT SKY AND/OR WEATHER CONDITIONS ARE NOT AVAILABLE.

MNZ060>063-068>070-061100-
   Twin Cities Metro

CITY           SKY/WX    TMP DP  RH WIND       PRES   REMARKS
TWIN CITIES    CLOUDY    30  21  69 W16G23    29.72S WCI  19
ST PAUL        CLOUDY    31  23  72 SW12G21   29.73F WCI  22
CRYSTAL        CLOUDY    30  21  69 SW14      29.70S WCI  19
BLAINE         CLOUDY    32  27  80 SW8       29.69F WCI  25
LAKEVILLE      CLOUDY    28  25  86 W8G18     29.73S WCI  20
EDEN PRAIRIE   CLOUDY    30  22  72 W13G18    29.71S WCI  20
SOUTH ST PAUL  CLOUDY    32  24  72 SW12G21   29.72S WCI  23
LAKE ELMO      CLOUDY    32  27  80 SW17G25   29.71F WCI  21
$$
MNZ001>005-007-008-013>017-022>024-027-028-061100-
   Northwest Minnesota

CITY           SKY/WX    TMP DP  RH WIND       PRES   REMARKS
BEMIDJI        CLOUDY    25  21  85 SW17G26   29.42F WCI  11
HALLOCK        LGT SNOW  30  28  93 N18       29.31F WCI  18
ROSEAU         LGT SNOW  34  28  80 SE9       29.30F WCI  26
WARROAD        LGT SNOW  34  28  80 SE12      29.32F WCI  25
THIEF RVR FALL LGT SNOW  26  25  96 S25G37    29.31R VSB 1   WCI  11
CROOKSTON      LGT SNOW  28  28 100 S17       29.33S WCI  16
FOSSTON        CLOUDY    19  19 100 S28G40    29.39F WCI   1
DETROIT LAKES  CLOUDY    21  18  86 SW18G26   29.49S WCI   6
MOORHEAD       CLOUDY    21  18  86 S17G26    29.46F WCI   7
PARK RAPIDS    CLOUDY    21  14  74 S13G25    29.49F WCI   9
$$
MNZ006-009>011-018-025>026-061100-
   North Central Minnesota

CITY           SKY/WX    TMP DP  RH WIND       PRES   REMARKS
BAUDETTE       CLOUDY    33  31  92 S21G30    29.35S WCI  21
FLAG ISLAND    LGT SNOW  30  28  93 E13G20    29.34F VSB 3/4 WCI  20
INTL FALLS     CLOUDY    34  32  92 S7G17     29.43F FOG     WCI  28
WASKISH        CLOUDY    30  30 100 S12G21    29.40R WCI  21
BIG FORK       CLOUDY    32  27  80 S14G24    29.47R WCI  22
LONGVILLE      CLOUDY    25  19  80 S18G25    29.52R WCI  11
GRAND RAPIDS   CLOUDY    30  24  78 S10G21    29.52S WCI  21
CRANE LAKE     DRIZZLE   32  32 100 SE5       29.51S WCI  27
ORR            CLOUDY    34  28  80 S10G18    29.46S WCI  26
COOK           CLOUDY    34  30  86 S12G18    29.49F WCI  25
$$
MNZ012-019>021-037-061100-
   Northeast Minnesota

CITY           SKY/WX    TMP DP  RH WIND       PRES   REMARKS
DULUTH         CLOUDY    34  30  85 SW21G28   29.56S WCI  22
ELY            CLOUDY    34  34 100 S15G21    29.52F WCI  24
HIBBING        CLOUDY    32  28  85 S8        29.51S WCI  25
EVELETH        CLOUDY    34  30  85 S16G24    29.53S WCI  23
DULUTH HARBOR  CLOUDY    37  34  87 SW17      29.59F
TWO HARBORS    CLOUDY    37  34  87 S16G23    29.57S
SILVER BAY     CLOUDY    37  36  93 S15G22    29.57F FOG
GRAND MARAIS     N/A     41  35  79 S20       29.64F
G MARAIS ARPRT MIX PCPN  32  28  86 SE8       29.60F WCI  25
$$
MNZ029>031-032-039>041-046>048-054>057-064-061100-
   West Central Minnesota

CITY           SKY/WX    TMP DP  RH WIND       PRES   REMARKS
FERGUS FALLS   CLOUDY    19  12  73 SW28      29.59F WCI   1
WHEATON        CLOUDY    19  14  79 SW18G32   29.65R WCI   4
MORRIS         CLOUDY    19  14  79 SW23G32   29.63F WCI   2
ALEXANDRIA     CLOUDY    19  13  77 SW21G31   29.61S WCI   3
ELBOW LAKE     CLOUDY    18  13  80 SW24G32   29.60F WCI   0
WADENA         MIX PCPN  18  14  86 SW17G24   29.54R WCI   2
GLENWOOD       CLOUDY    19  14  79 SW24G33   29.62S WCI   2
APPLETON       CLOUDY    21  12  68 W24G33    29.69F WCI   4
BENSON         FLURRIES  19  12  73 W25G31    29.68F WCI   2
ORTONVILLE     CLOUDY    18  10  73 W16G25    29.69S WCI   3
MADISON        CLOUDY    21  12  68 W22G31    29.72S WCI   5
WILLMAR        CLOUDY    21  18  86 W24G31    29.72R WCI   4
$$
MNZ033>034-036-042>043-049>051-058-059-061100-
   Central Minnesota

CITY           SKY/WX    TMP DP  RH WIND       PRES   REMARKS
ST CLOUD       CLOUDY    24  18  77 SW21G30   29.67S WCI   9
PAYNESVILLE    CLOUDY    22  17  81 SW17G28   29.68F WCI   7
AITKIN         CLOUDY    30  19  64 SW13G21   29.56R WCI  20
PINE RIVER     CLOUDY    23  18  80 SW10G17   29.58S WCI  12
BRAINERD       CLOUDY    24  19  81 SW18      29.58R WCI  10
STAPLES        CLOUDY    19  16  86 SW14      29.58R WCI   6
LONG PRAIRIE   CLOUDY    19  14  79 S16G23    29.61F WCI   5
LITTLE FALLS   CLOUDY    23  18  80 SW14G22   29.63S WCI  11
LITCHFIELD     CLOUDY    25  18  74 SW13G20   29.71S WCI  13
BUFFALO        CLOUDY    26  19  75 SW10G24   29.71S WCI  16
MAPLE LAKE     CLOUDY    26  20  79 W9G20     29.71R WCI  17
$$
MNZ037-044-045-052-053-061100-
   East Central Minnesota

CITY           SKY/WX    TMP DP  RH WIND       PRES   REMARKS
PRINCETON      CLOUDY    28  21  74 SW6G20    29.67F WCI  22
MORA           CLOUDY    30  23  74 SW17G23   29.66R WCI  18
CAMBRIDGE      CLOUDY    32  21  64 SW12G18   29.65S WCI  23
RUSH CITY      CLOUDY    32  25  74 SW14      29.66S WCI  22
MOOSE LAKE     CLOUDY    32  27  80 SW16G23   29.57F WCI  21
HINCKLEY       CLOUDY    32  28  86 SW18G24   29.63R WCI  20
CLOQUET        CLOUDY    34  28  80 S15G23    29.55F WCI  24
MCGREGOR       CLOUDY    30  25  80 SW14G22   29.56F WCI  20
$$
MNZ071>073-080-081-089-090-097-098-061100-
   Southwest Minnesota

CITY           SKY/WX    TMP DP  RH WIND       PRES   REMARKS
MONTEVIDEO     CLOUDY    19  12  73 W16G29    29.74F WCI   5
GRANITE FALLS  CLOUDY    21  15  76 SW26G32   29.76S WCI   4
CANBY          CLOUDY    19  12  76 NW23G30   29.75S WCI   1
MARSHALL       CLEAR     17  10  74 W25G31    29.76S WCI  -1
REDWOOD FALLS  CLOUDY    21  11  65 W21G32    29.77R WCI   5
OLIVIA         CLOUDY    23  16  74 W23       29.74S WCI   7
PIPESTONE      MOCLDY    16  10  79 W22G30    29.78S WCI  -2
WINDOM         CLOUDY    19  12  73 W21       29.78R WCI   3
WORTHINGTON    CLOUDY    17  12  80 W24G31    29.80R WCI  -1
JACKSON        CLOUDY    21  14  73 W20       29.80R WCI   6
TRACY          CLOUDY    19  13  79 W12G20    29.77S WCI   6
SLAYTON        PTCLDY    16  11  82 W25G32    29.76S WCI  -3
$$
MNZ065>067-074>077-082>085-091>093-061100-
   South Central Minnesota

CITY           SKY/WX    TMP DP  RH WIND       PRES   REMARKS
MANKATO        CLOUDY    27  22  81 W22G28    29.76S WCI  13
NEW ULM        CLOUDY    25  18  74 W20       29.77R WCI  11
ST JAMES       CLOUDY    25  18  74 SW18      29.81R WCI  11
FAIRMONT       CLOUDY    25  17  72 W22       29.80R WCI  10
GLENCOE        CLOUDY    28  23  84 W15G25    29.73R WCI  16
FARIBAULT      CLOUDY    30  25  80 SW13G21   29.75S WCI  20
OWATONNA       CLOUDY    30  25  80 W15       29.75S WCI  19
WASECA         CLOUDY    32  28  86 W17G24    29.77S WCI  21
ALBERT LEA     CLOUDY    34  30  86 W10G17    29.76S WCI  26
$$
MNZ078>079-086>088-094>096-061100-
   Southeast Minnesota

CITY           SKY/WX    TMP DP  RH WIND       PRES   REMARKS
ROCHESTER      LGT SNOW  31  30  96 SW9       29.74F FOG     WCI  23
RED WING       CLOUDY    34  28  80 W6        29.73F WCI  29
STANTON        CLOUDY    32  26  78 SW8       29.72F WCI  25
DODGE CENTER   CLOUDY    30  28  93 W15       29.74S WCI  19
WINONA         LGT SNOW  34  32  93 CALM      29.77F
AUSTIN         LGT SNOW  30  28  93 W6        29.75F WCI  24
PRESTON        LGT SNOW  32  31  95 SW10      29.76S WCI  23
$$
ABBREVIATIONS USED IN REMARKS
   TC - TEMPERATURES IN CELSIUS
  WCI - WIND CHILL INDEX
   HX - HEAT INDEX
  VSB - VISIBILITY
$$




USA.gov is the U.S. government's official web portal to all federal, state and local government web resources and services.